Voltar ao catálogo

COSMOS 1579 COOLANT

LostLEO
NORAD 27911·DEBRIS·🇷🇺 Russia

Lançado Jun 29, 1984 de Baikonur Cosmodrome

Loading…

Próximas Passagens (próximas 24 horas)

TLE

ObsoletoSource: Space-Track

Época: Dec 16, 2023, 23:44 UTC

1 27911U 84069AD  23350.98938590  .00000186  00000-0  21650-3 0  9993
2 27911  65.0463 122.1341 0056655 312.6915  46.9384 13.91025722 68307

Acompanhe COSMOS 1579 COOLANT em tempo real com AllMySat

Download on the App Store